MINOTAUR-C R/B, 42994

Orbit data source: Space-Track

MINOTAUR-C R/B, 42994 is space debris in SSO originally from a launch on Tue, 31 Oct 2017 UTC launched from the Air Force Western Test Range (AFWTR). Debris objects in space refer to the collection of defunct objects orbiting the Earth. Examples of debris include non-operational satellites, rocket bodies, and fragments generated from explosions, collisions, or faulty payload assembly.

Not visible in the next 10 days
MINOTAUR-C R/B details
Identifier
42994, 2017-068H
Orbit
SSO
Last TLE update21 hours ago
Origin
Flag of USOATK FSG (US)
ManufacturerOATK FSG Utah
MissionSpacecraft
Bus & MotorORION 38, Unknown motor
Mass202 kg wet, 202 kg dry
Launch date (UTC)
2017-10-31 (7 years ago)
Launch vehicleUnknown
Launch site
Air Force Western Test Range (AFWTR)
Object type
Payload
Rocket body
Debris
Shape & HBRCyl, 1.4 m
Radar Cross Section1.492 m², Large (>1 m²)

Expand to show TLE details & history

TLE from 21 hours ago
0 MINOTAUR-C R/B
1 42994U 17068H   24360.55456301  .00765383  29366-3  11731-2 0  9990
2 42994  97.4446 127.7904 0004834 315.7028  44.3865 16.04401332398193
Epoch: 2024-12-25T13:18Z
Definitive object data (Epoch: 2024-12-25T13:18:34.244Z)
Latitude
Longitude-166.39892°
Altitude263.155 km
Speed7.751 km/s
True Right ascension08h 31m 09s
True Declination0° 00' 00"
Sunlit
Object was in full shadow at TLE epoch
Visualization TLE readout
Latitude78.12279°
Longitude52.7515°
Altitude274.607 km
Speed7.748 km/s
Apparent Right ascension22h 15m 50s
Apparent Declination21° 13' 04"
Sunlit
Object is in full shadow
Visualization observer readout
Local Sidereal Time10:01:23
Azimuth356.159° N
Elevation-28.773°
Doppler factor1
Orbital elements
Apogee altitude262.311 km
Perigee altitude255.894 km
Semi-major axis6,637.24 km
Eccentricity0.0004834
Inclination97.4446°
RAAN127.7904°
Arg. of periapsis315.7028°
True anomaly44.42526°
Mean anomaly44.3865°
Eccentric anomaly44.40588°
Mean motion4.01386 °/min
BSTAR0.0011731
Orbital period89.69 mins
Loading maneuver chart data...
Loading historical data...
Loading historical data...
Loading historical data...
Loading historical data...
Loading historical data...
Loading historical data...
Loading historical data...

MINOTAUR-C R/B Visibility forecast

Observer location: undefined°, undefined

MINOTAUR-C R/B is not visible in the next 10 days
Span
Click to sort rows by Start time (UTC) header in descending order
Start Az.
Max El. time (UTC)
Max El. Az.
Max El.
End time (UTC)
End Az.
|